User: anonymous   Login
Location: Newark
(52.2090°N, 4.1550°W)
Time: 18:11:00
(UTC+00:00)
Language:

Courier 1B - Orbit

View from above orbital plane
View from above orbital plane
View from above satellite
View from above satellite

Ground track
Ground track

The orbit data is extracted from the following two-line orbital elements,

1    58U 60013A   19265.78055060  .00000084  00000-0  14314-5 0  9997
2    58  28.3293  17.6741 0165052   4.8962 355.3161 13.46319147902910
Epoch (UTC): 22 September 2019 18:43:59
Eccentricity: 0.0165052
inclination: 28.3293°
perigee height: 962 km
apogee height: 1209 km
right ascension of ascending node: 17.6741°
argument of perigee: 4.8962°
revolutions per day: 13.46319147
mean anomaly at epoch: 355.3161°
orbit number at epoch: 90291

The dashed part of the orbit path shows where the satellite is in the earth's shadow,  

DLR